Le nostre stazioni meteo in Italia

Pubblicità
Il mio iltempo24.it
Decimomannu, Italia (16546): Temperatura & dewpoint: 17.05.2017 16:00:00 - 23.05.2017 16:00:00 (CEST)Decimomannu, Italia (16546): velocità del vento: 17.05.2017 16:00:00 - 23.05.2017 16:00:00 (CEST)Decimomannu, Italia (16546): direzione del vento: 17.05.2017 16:00:00 - 23.05.2017 16:00:00 (CEST)Decimomannu, Italia (16546): reduced air pressure: 17.05.2017 16:00:00 - 23.05.2017 16:00:00 (CEST)Decimomannu, Italia (16546): visibility: 17.05.2017 16:00:00 - 23.05.2017 16:00:00 (CEST)
Data & Tempo tt [°C] td [°C] ff [km/h] ff [kn] dd ppp [hPa] vv [km]
23.05.2017 16:00:00 29,0 15,0 21 11 SSE - 10
23.05.2017 15:00:00 28,0 16,0 24 13 SSE - 10
23.05.2017 14:00:00 28,8 16,0 26 14 SSE 1017,8 20
23.05.2017 13:00:00 29,0 13,0 21 11 SSE - 10
23.05.2017 12:00:00 30,0 14,0 13 7 SSE - 10
23.05.2017 11:00:00 28,2 13,0 8 4 SSO 1018,3 20
23.05.2017 10:00:00 25,0 14,0 0 0 N - 10
23.05.2017 09:00:00 21,0 14,0 2 1 ONO - 10
23.05.2017 08:00:00 17,2 14,1 2 1 NNO 1017,8 15
23.05.2017 07:00:00 14,0 12,0 8 4 NNO - 10
23.05.2017 06:00:00 14,0 12,0 8 4 N - 10
23.05.2017 05:00:00 14,0 12,4 9 5 N 1016,9 20
23.05.2017 04:00:00 14,0 12,0 4 2 NNO - 10
23.05.2017 03:00:00 16,0 14,0 8 4 NO - 10
23.05.2017 02:00:00 16,4 13,7 5 3 NNO 1017,3 20
23.05.2017 01:00:00 18,0 15,0 5 3 NO - 10
23.05.2017 00:00:00 18,0 15,0 4 2 N - 10
22.05.2017 23:00:00 19,0 14,7 11 6 E 1017,8 20
22.05.2017 22:00:00 20,0 12,0 11 6 E - 10
22.05.2017 21:00:00 22,0 11,0 9 5 SE - 10
22.05.2017 20:00:00 24,0 10,3 18 10 SSE 1016,7 10
22.05.2017 19:00:00 26,0 11,0 16 9 SSE - 10
22.05.2017 18:00:00 28,0 11,0 18 10 SSE - 10
22.05.2017 17:00:00 28,4 12,3 24 13 SSE 1017,0 25
22.05.2017 16:00:00 29,0 12,0 21 11 SSE - 10
22.05.2017 15:00:00 30,0 12,0 21 11 SSE - 10
22.05.2017 14:00:00 30,2 12,2 24 13 SSE 1016,8 25
22.05.2017 13:00:00 30,0 12,0 5 3 OSO - 10
22.05.2017 12:00:00 28,0 12,0 4 2 SE - 10
22.05.2017 11:00:00 27,4 11,8 5 3 NNE 1018,1 25
22.05.2017 10:00:00 27,0 16,0 5 3 N - 10
22.05.2017 09:00:00 19,0 15,0 9 5 ONO - 10
22.05.2017 08:00:00 15,0 12,9 4 2 NNO 1018,1 20
22.05.2017 07:00:00 12,0 11,0 5 3 NNO - 10
22.05.2017 06:00:00 13,0 12,0 4 2 NO - 10
22.05.2017 05:00:00 13,4 11,5 5 3 N 1018,7 10
22.05.2017 04:00:00 14,0 13,0 8 4 NNO - 10
22.05.2017 03:00:00 15,0 14,0 5 3 NNO - 10
22.05.2017 02:00:00 15,2 14,6 8 4 N 1018,9 10
22.05.2017 01:00:00 16,0 15,0 8 4 NNO - 10
22.05.2017 00:00:00 16,0 14,0 9 5 N - 10
21.05.2017 23:00:00 17,0 13,1 9 5 NNO 1019,9 10
21.05.2017 22:00:00 18,0 16,0 13 7 N - 10
21.05.2017 21:00:00 20,0 15,0 13 7 N - 10
21.05.2017 20:00:00 21,2 13,6 24 13 NNO 1018,1 15
21.05.2017 19:00:00 23,0 12,0 34 18 NNO - 10
21.05.2017 18:00:00 24,0 12,0 34 18 NNO - 10
21.05.2017 17:00:00 25,0 9,3 34 18 NNO 1017,7 20
21.05.2017 16:00:00 25,0 9,0 34 18 NNO - 10
21.05.2017 15:00:00 25,0 8,0 34 18 NNO - 10
21.05.2017 14:00:00 25,4 8,0 26 14 NO 1018,8 20
21.05.2017 13:00:00 24,0 7,0 34 18 NO - 10
21.05.2017 12:00:00 24,0 11,0 34 18 NO - 10
21.05.2017 11:00:00 23,0 10,4 29 16 NNO 1019,5 20
21.05.2017 10:00:00 21,0 13,0 37 20 NNO - 10
21.05.2017 09:00:00 20,0 16,0 26 14 NNO - 10
21.05.2017 08:00:00 17,0 14,8 15 8 NNO 1019,8 20
21.05.2017 07:00:00 15,0 14,0 9 5 NNE - 10
21.05.2017 06:00:00 14,0 13,0 9 5 NNE - 10
21.05.2017 05:00:00 14,8 14,0 13 7 NNE 1019,8 12
21.05.2017 04:00:00 15,0 14,0 13 7 N - 10
21.05.2017 03:00:00 15,0 14,0 13 7 NNO - 10
21.05.2017 02:00:00 16,4 14,2 8 4 N 1021,6 10
21.05.2017 01:00:00 15,0 13,0 4 2 NNE - 10
21.05.2017 00:00:00 16,0 13,0 5 3 N - 10
20.05.2017 23:00:00 16,8 13,0 13 7 NNO 1021,7 20
20.05.2017 22:00:00 17,0 13,0 21 11 NO - 10
20.05.2017 21:00:00 18,0 12,0 28 15 NO - 10
20.05.2017 20:00:00 19,0 10,6 28 15 NO 1020,7 20
20.05.2017 19:00:00 21,0 9,0 37 20 NO - 10
20.05.2017 18:00:00 22,0 10,0 37 20 NO - 10
20.05.2017 17:00:00 22,2 8,7 39 21 NO 1020,1 20
20.05.2017 16:00:00 23,0 10,0 37 20 NO - 10
20.05.2017 15:00:00 23,0 10,0 37 20 NO - 10
20.05.2017 14:00:00 24,0 9,6 35 19 NNO 1020,8 20
20.05.2017 13:00:00 23,0 10,0 34 18 NNO - 10
20.05.2017 12:00:00 22,0 11,0 34 18 NO - 10
20.05.2017 11:00:00 22,0 11,7 28 15 NO 1020,5 20
20.05.2017 10:00:00 21,0 13,0 22 12 NNO - 10
20.05.2017 09:00:00 18,0 13,0 15 8 NO - 10
20.05.2017 08:00:00 16,6 13,5 13 7 NNO 1020,5 10
20.05.2017 07:00:00 16,0 14,0 2 1 NO - 10
20.05.2017 06:00:00 15,0 13,0 9 5 ONO - 10
20.05.2017 05:00:00 14,0 13,0 8 4 NNO 1018,7 12
20.05.2017 04:00:00 14,0 13,0 9 5 N - 10
20.05.2017 03:00:00 14,0 13,0 13 7 N - 10
20.05.2017 02:00:00 14,8 13,5 5 3 ENE 1019,1 12
20.05.2017 01:00:00 16,0 14,0 15 8 NNO - 10
20.05.2017 00:00:00 17,0 15,0 15 8 NO - 10
19.05.2017 23:00:00 17,2 15,2 16 9 NO 1018,8 12
19.05.2017 22:00:00 17,0 15,0 21 11 NO - 10
19.05.2017 21:00:00 18,0 15,0 16 9 NO - 10
19.05.2017 20:00:00 19,8 14,2 16 9 NO 1017,4 20
19.05.2017 19:00:00 22,0 15,0 29 16 NO - 10
19.05.2017 18:00:00 23,0 16,0 29 16 ONO - 10
19.05.2017 17:00:00 23,8 17,1 34 18 NO 1015,1 20
19.05.2017 16:00:00 25,0 17,0 34 18 ONO - 10
19.05.2017 15:00:00 26,0 17,0 35 19 NO - 10
19.05.2017 14:00:00 26,4 17,5 42 23 NO 1013,5 15
19.05.2017 13:00:00 26,0 17,0 29 16 NNO - 10
19.05.2017 12:00:00 26,0 17,0 22 12 NO - 10
19.05.2017 11:00:00 25,8 18,5 15 8 O 1012,8 15
19.05.2017 10:00:00 24,0 18,0 13 7 O - 10
19.05.2017 09:00:00 24,0 20,0 8 4 SSE - 10
19.05.2017 08:00:00 21,8 18,4 11 6 SSE 1012,0 15
19.05.2017 07:00:00 20,0 18,0 13 7 SSE - 10
19.05.2017 06:00:00 16,0 15,0 4 2 SE - 10
19.05.2017 05:00:00 17,0 16,5 5 3 N 1012,0 16
19.05.2017 04:00:00 18,0 16,0 2 1 NNO - 10
19.05.2017 03:00:00 20,0 18,0 9 5 SE - 10
19.05.2017 02:00:00 20,0 17,0 16 9 SE 1012,7 20
19.05.2017 01:00:00 20,0 18,0 11 6 SE - 10
19.05.2017 00:00:00 20,0 17,0 9 5 ESE - 10
18.05.2017 23:00:00 20,0 16,7 15 8 SE 1013,3 15
18.05.2017 22:00:00 21,0 16,0 11 6 SSE - 10
18.05.2017 21:00:00 21,0 16,0 16 9 S - 10
18.05.2017 20:00:00 24,4 15,3 22 12 SE 1012,7 25
18.05.2017 19:00:00 26,0 16,0 21 11 O - 10
18.05.2017 18:00:00 26,0 14,0 22 12 S - 10
18.05.2017 17:00:00 26,6 13,4 28 15 S 1012,8 15
18.05.2017 16:00:00 25,0 13,0 22 12 SSE - 10
18.05.2017 15:00:00 26,0 14,0 31 17 SSE - 10
18.05.2017 14:00:00 25,6 11,7 31 17 SSE 1014,6 20
18.05.2017 13:00:00 27,0 11,0 28 15 SSE - 10
18.05.2017 12:00:00 28,0 13,0 22 12 SSE - 10
18.05.2017 11:00:00 26,4 17,2 16 9 SSE 1014,6 20
18.05.2017 10:00:00 25,0 16,0 16 9 SSO - 10
18.05.2017 09:00:00 22,0 17,0 13 7 SSE - 10
18.05.2017 08:00:00 18,2 14,9 5 3 ENE 1015,5 12
18.05.2017 07:00:00 14,0 12,0 8 4 N - 10
18.05.2017 06:00:00 13,0 12,0 0 0 N - 10
18.05.2017 05:00:00 15,0 13,4 4 2 NE 1015,4 12
18.05.2017 04:00:00 15,0 14,0 4 2 N - 10
18.05.2017 03:00:00 15,0 13,0 4 2 N - 10
18.05.2017 02:00:00 15,4 13,3 4 2 N 1016,3 20
18.05.2017 01:00:00 17,0 15,0 4 2 N - 10
18.05.2017 00:00:00 18,0 15,0 4 2 NNE - 10
17.05.2017 23:00:00 19,0 15,1 4 2 NNE 1017,9 20
17.05.2017 22:00:00 21,0 14,0 11 6 NNE - 10
17.05.2017 21:00:00 22,0 12,0 8 4 NNE - 10
17.05.2017 20:00:00 24,6 11,2 15 8 SSE 1016,9 20
17.05.2017 19:00:00 26,0 11,0 21 11 SE - 10
17.05.2017 18:00:00 27,0 11,0 24 13 SSE - 10
17.05.2017 17:00:00 27,8 12,2 22 12 SE 1017,2 25
17.05.2017 16:00:00 28,0 12,0 24 13 SSE - 10

tt = Temperatura
td = dewpoint
ff = velocità del vento
dd = direzione del vento
ppp = reduced air pressure
vv = visibility

Stazioni seguenti

WeatherPro
AMSI
MeteoEarth